Weather in Ivankovskiy

Russia / Ivanovo Oblast     56°40′30″N   40°06′35″E
temp.,
°C
wind,
m/s
gust,
m/s
humid.,
%
clouds,
%
prec.,
mm/h
press.,
hPa
HPBL,
m
25 february, thu
thu2500:00−15s51094100 0.4 1027443
03:00−14s5995100 1.9 1024416
06:00−13s51095100 2.4 1018409
09:00−10ssw51095100 5.8 1014445
12:00−4ssw3697100 1.4 1011238
15:00+2wnw310100100 1.8 1011316
18:00+2nw411100100 0.2 1011412
21:00+1wnw3999100 0.3 1012329
26 february, fri
fri2600:000w3895100 0.0 1011272
03:00+1wsw3799100 0.1 1010211
06:00+1wsw3899100 0.6 1007247
09:00+2sw41199100 1.5 1005325
12:00+2wsw513100100 0.9 1001431
15:00+3wsw514100100 1.9 999504
18:00+2w61595100 1.1 998891
21:00+1w7149796 1.1 9981024
27 february, sat
sat2700:00+1wnw71496100 0.2 996966
03:00+1wnw71497100 0.4 9971009
06:00+1wnw71397100 1.0 997961
09:00−5nnw61294100 2.3 999650
12:00−7nnw5989100 0.3 1001626
15:00−7nnw5990100 0.3 1004598
18:00−7n489199 0.1 1006566
21:00−8n4891100 0.1 1009550
28 february, sun
sun2800:00−12nnw369693 0.0 1011154
03:00−12nnw369572 0.0 1013179
06:00−12nnw269674 0.0 1014194
09:00−10nnw369476 0.1 1015343
12:00−6nnw498995 0.1 1017661
15:00−5nnw598897 0.1 1018785
18:00−5n3992100 0.1 1019673
21:00−7nnw3994100 0.4 1022336
1 march, mon
mon100:00−9nnw369691 0.1 1023151
03:00−11nw239667 0.1 102548
06:00−11nw229725 0.0 102521
09:00−8w249754 0.1 1026141
12:00−3w249287 0.0 1025341
15:00−1wsw489193 0.0 1023492
18:00−1w41094100 0.1 1021577
21:000w41193100 0.1 1018649